Time,TemperatureF,DewpointF,PressureIn,WindDirection,WindDirectionDegrees,WindSpeedMPH,WindSpeedGustMPH,Humidity,HourlyPrecipIn,Conditions,Clouds,dailyrainin,SoftwareType,DateUTC
2013-09-03 00:00:00,61.4,56.5,29.94,NNE,24,0.0,0.0,84,0.00,,---,0.00,VWS V14.01,2013-09-03 07:00:00,
2013-09-03 00:01:00,61.5,56.6,29.94,NNE,24,0.0,0.0,84,0.00,,---,0.00,VWS V14.01,2013-09-03 07:01:00,
2013-09-03 00:05:00,61.5,56.6,29.94,NNE,23,0.0,0.0,84,0.00,,---,0.00,VWS V14.01,2013-09-03 07:05:00,
2013-09-03 00:06:00,61.5,56.6,29.94,NNE,24,0.0,0.0,84,0.00,,---,0.00,VWS V14.01,2013-09-03 07:06:00,
2013-09-03 00:10:00,61.5,56.6,29.94,NNE,24,0.0,0.0,84,0.00,,---,0.00,VWS V14.01,2013-09-03 07:10:00,
2013-09-03 00:11:00,61.5,56.6,29.94,NNE,23,0.0,0.0,84,0.00,,---,0.00,VWS V14.01,2013-09-03 07:11:00,
2013-09-03 00:15:00,61.5,56.6,29.93,NNE,23,0.0,0.0,84,0.00,,---,0.00,VWS V14.01,2013-09-03 07:15:00,
2013-09-03 00:16:00,61.4,56.5,29.93,NNE,23,0.0,0.0,84,0.00,,---,0.00,VWS V14.01,2013-09-03 07:16:00,
2013-09-03 00:20:00,61.7,57.2,29.94,SE,143,0.0,1.0,85,0.00,,---,0.00,VWS V14.01,2013-09-03 07:20:00,
2013-09-03 00:21:00,61.7,56.8,29.94,NNE,24,0.0,1.0,84,0.00,,---,0.00,VWS V14.01,2013-09-03 07:21:00,
2013-09-03 00:25:00,62.3,57.4,29.93,SE,135,0.0,1.0,84,0.00,,---,0.00,VWS V14.01,2013-09-03 07:25:00,
2013-09-03 00:26:00,62.2,57.3,29.93,SE,135,0.0,1.0,84,0.00,,---,0.00,VWS V14.01,2013-09-03 07:26:00,
2013-09-03 00:30:00,62.9,58.0,29.93,ESE,105,0.0,1.0,84,0.00,,---,0.00,VWS V14.01,2013-09-03 07:30:00,
2013-09-03 00:31:00,62.8,57.9,29.93,ESE,105,0.0,1.0,84,0.00,,---,0.00,VWS V14.01,2013-09-03 07:31:00,
2013-09-03 00:35:00,63.1,58.2,29.94,SW,224,1.0,1.0,84,0.00,,---,0.00,VWS V14.01,2013-09-03 07:35:00,
2013-09-03 00:36:00,63.1,58.2,29.94,SSW,208,0.0,0.0,84,0.00,,---,0.00,VWS V14.01,2013-09-03 07:36:00,
2013-09-03 00:40:00,62.9,57.7,29.94,SW,224,0.0,1.0,83,0.00,,---,0.00,VWS V14.01,2013-09-03 07:40:00,
2013-09-03 00:41:00,63.0,57.8,29.94,SW,224,0.0,1.0,83,0.00,,---,0.00,VWS V14.01,2013-09-03 07:41:00,
2013-09-03 00:45:00,62.7,57.5,29.94,SSE,158,0.0,0.0,83,0.00,,---,0.00,VWS V14.01,2013-09-03 07:45:00,
2013-09-03 00:46:00,62.8,57.6,29.94,SW,224,0.0,0.0,83,0.00,,---,0.00,VWS V14.01,2013-09-03 07:46:00,
2013-09-03 00:50:00,62.8,57.9,29.94,East,92,1.0,2.0,84,0.00,,---,0.00,VWS V14.01,2013-09-03 07:50:00,
2013-09-03 00:51:00,62.8,57.9,29.94,East,92,1.0,2.0,84,0.00,,---,0.00,VWS V14.01,2013-09-03 07:51:00,
2013-09-03 00:55:00,62.9,57.7,29.94,East,92,0.0,1.0,83,0.00,,---,0.00,VWS V14.01,2013-09-03 07:55:00,
2013-09-03 00:56:00,62.9,57.7,29.94,East,92,0.0,1.0,83,0.00,,---,0.00,VWS V14.01,2013-09-03 07:56:00,
2013-09-03 01:00:00,62.9,58.0,29.94,East,92,0.0,0.0,84,0.00,,---,0.00,VWS V14.01,2013-09-03 08:00:00,
2013-09-03 01:01:00,62.9,58.0,29.94,East,92,0.0,0.0,84,0.00,,---,0.00,VWS V14.01,2013-09-03 08:01:00,
2013-09-03 01:05:00,63.0,58.1,29.93,NW,307,0.0,2.0,84,0.00,,---,0.00,VWS V14.01,2013-09-03 08:05:00,
2013-09-03 01:06:00,63.0,58.1,29.93,NW,307,0.0,2.0,84,0.00,,---,0.00,VWS V14.01,2013-09-03 08:06:00,
2013-09-03 01:10:00,63.0,58.1,29.93,NW,308,0.0,1.0,84,0.00,,---,0.00,VWS V14.01,2013-09-03 08:10:00,
2013-09-03 01:11:00,63.0,58.1,29.93,NW,307,0.0,1.0,84,0.00,,---,0.00,VWS V14.01,2013-09-03 08:11:00,
2013-09-03 01:15:00,63.1,58.5,29.94,NW,315,0.0,0.0,85,0.00,,---,0.00,VWS V14.01,2013-09-03 08:15:00,
2013-09-03 01:16:00,63.1,58.5,29.94,NW,315,0.0,0.0,85,0.00,,---,0.00,VWS V14.01,2013-09-03 08:16:00,
2013-09-03 01:20:00,63.0,58.4,29.94,NW,314,0.0,0.0,85,0.00,,---,0.00,VWS V14.01,2013-09-03 08:20:00,
2013-09-03 01:21:00,63.0,58.4,29.94,NW,314,0.0,0.0,85,0.00,,---,0.00,VWS V14.01,2013-09-03 08:21:00,
2013-09-03 01:25:00,62.9,58.3,29.95,NW,314,0.0,0.0,85,0.00,,---,0.00,VWS V14.01,2013-09-03 08:25:00,
2013-09-03 01:26:00,62.9,58.3,29.95,NW,314,0.0,0.0,85,0.00,,---,0.00,VWS V14.01,2013-09-03 08:26:00,
2013-09-03 01:30:00,62.9,58.3,29.94,NW,314,0.0,0.0,85,0.00,,---,0.00,VWS V14.01,2013-09-03 08:30:00,
2013-09-03 01:31:00,62.8,58.2,29.94,NW,314,0.0,0.0,85,0.00,,---,0.00,VWS V14.01,2013-09-03 08:31:00,
2013-09-03 01:35:00,62.9,58.3,29.94,NNE,32,0.0,1.0,85,0.00,,---,0.00,VWS V14.01,2013-09-03 08:35:00,
2013-09-03 01:40:00,63.0,58.4,29.95,NNE,32,0.0,1.0,85,0.00,,---,0.00,VWS V14.01,2013-09-03 08:40:00,
2013-09-03 01:45:00,63.0,58.4,29.95,NNE,32,0.0,0.0,85,0.00,,---,0.00,VWS V14.01,2013-09-03 08:45:00,
2013-09-03 01:50:00,63.0,58.4,29.95,NNE,32,0.0,1.0,85,0.00,,---,0.00,VWS V14.01,2013-09-03 08:50:00,
2013-09-03 01:55:00,63.1,58.5,29.95,NNE,33,0.0,1.0,85,0.00,,---,0.00,VWS V14.01,2013-09-03 08:55:00,
2013-09-03 02:00:00,63.0,58.4,29.95,NNE,33,0.0,0.0,85,0.00,,---,0.00,VWS V14.01,2013-09-03 09:00:00,
2013-09-03 02:05:00,63.0,58.4,29.95,NNE,32,0.0,0.0,85,0.00,,---,0.00,VWS V14.01,2013-09-03 09:05:00,
2013-09-03 02:10:00,63.0,58.4,29.93,NW,323,1.0,2.0,85,0.00,,---,0.00,VWS V14.01,2013-09-03 09:10:00,
2013-09-03 02:15:00,63.0,58.4,29.93,ENE,75,1.0,4.0,85,0.00,,---,0.00,VWS V14.01,2013-09-03 09:15:00,
2013-09-03 02:20:00,63.1,58.5,29.93,East,92,0.0,3.0,85,0.01,,---,0.01,VWS V14.01,2013-09-03 09:20:00,
2013-09-03 02:25:00,63.0,58.4,29.94,ENE,75,1.0,1.0,85,0.01,,---,0.01,VWS V14.01,2013-09-03 09:25:00,
2013-09-03 02:30:00,62.8,58.2,29.94,East,88,0.0,0.0,85,0.01,,---,0.01,VWS V14.01,2013-09-03 09:30:00,
2013-09-03 02:35:00,62.6,58.0,29.95,East,88,0.0,0.0,85,0.01,,---,0.01,VWS V14.01,2013-09-03 09:35:00,
2013-09-03 02:40:00,62.4,57.8,29.94,East,88,0.0,0.0,85,0.01,,---,0.01,VWS V14.01,2013-09-03 09:40:00,
2013-09-03 02:45:00,62.4,57.8,29.94,ESE,118,0.0,2.0,85,0.01,,---,0.01,VWS V14.01,2013-09-03 09:45:00,
2013-09-03 02:50:00,62.3,57.7,29.94,ESE,118,0.0,1.0,85,0.01,,---,0.01,VWS V14.01,2013-09-03 09:50:00,
2013-09-03 02:55:00,62.2,57.6,29.94,NE,41,1.0,2.0,85,0.01,,---,0.01,VWS V14.01,2013-09-03 09:55:00,
2013-09-03 03:00:00,62.3,57.7,29.94,NE,47,0.0,1.0,85,0.01,,---,0.01,VWS V14.01,2013-09-03 10:00:00,
2013-09-03 03:05:00,62.4,57.8,29.94,East,91,0.0,1.0,85,0.01,,---,0.01,VWS V14.01,2013-09-03 10:05:00,
2013-09-03 03:10:00,62.3,57.7,29.94,East,91,0.0,1.0,85,0.01,,---,0.01,VWS V14.01,2013-09-03 10:10:00,
2013-09-03 03:15:00,62.2,57.6,29.94,SW,229,0.0,1.0,85,0.01,,---,0.01,VWS V14.01,2013-09-03 10:15:00,
2013-09-03 03:20:00,62.1,57.5,29.95,SW,229,0.0,1.0,85,0.01,,---,0.01,VWS V14.01,2013-09-03 10:20:00,
2013-09-03 03:25:00,62.1,57.5,29.96,SW,229,0.0,1.0,85,0.00,,---,0.01,VWS V14.01,2013-09-03 10:25:00,
2013-09-03 03:30:00,62.0,57.5,29.95,SW,229,0.0,0.0,85,0.00,,---,0.01,VWS V14.01,2013-09-03 10:30:00,
2013-09-03 03:35:00,62.0,57.5,29.95,ESE,106,1.0,1.0,85,0.00,,---,0.01,VWS V14.01,2013-09-03 10:35:00,
2013-09-03 03:40:00,62.0,57.1,29.95,ESE,105,1.0,1.0,84,0.01,,---,0.02,VWS V14.01,2013-09-03 10:40:00,
2013-09-03 03:45:00,62.0,57.5,29.95,ESE,111,0.0,2.0,85,0.01,,---,0.02,VWS V14.01,2013-09-03 10:45:00,
2013-09-03 03:50:00,62.0,57.5,29.94,ESE,111,0.0,1.0,85,0.01,,---,0.02,VWS V14.01,2013-09-03 10:50:00,
2013-09-03 03:55:00,61.8,57.2,29.94,ESE,111,1.0,1.0,85,0.01,,---,0.02,VWS V14.01,2013-09-03 10:55:00,
2013-09-03 04:00:00,61.9,57.0,29.94,ESE,111,0.0,1.0,84,0.02,,---,0.03,VWS V14.01,2013-09-03 11:00:00,
2013-09-03 04:05:00,61.9,57.3,29.94,ESE,111,0.0,1.0,85,0.02,,---,0.03,VWS V14.01,2013-09-03 11:05:00,
2013-09-03 04:10:00,61.8,57.2,29.94,ESE,111,0.0,1.0,85,0.02,,---,0.03,VWS V14.01,2013-09-03 11:10:00,
2013-09-03 04:15:00,61.9,57.0,29.94,ESE,111,1.0,1.0,84,0.02,,---,0.03,VWS V14.01,2013-09-03 11:15:00,
2013-09-03 04:20:00,61.8,57.2,29.95,ESE,111,0.0,0.0,85,0.02,,---,0.03,VWS V14.01,2013-09-03 11:20:00,
2013-09-03 04:25:00,61.7,57.2,29.95,ESE,111,0.0,1.0,85,0.02,,---,0.03,VWS V14.01,2013-09-03 11:25:00,
2013-09-03 04:30:00,61.7,57.2,29.95,ESE,111,0.0,0.0,85,0.02,,---,0.03,VWS V14.01,2013-09-03 11:30:00,
2013-09-03 04:35:00,61.7,56.8,29.95,ESE,111,0.0,1.0,84,0.03,,---,0.04,VWS V14.01,2013-09-03 11:35:00,
2013-09-03 04:40:00,61.7,56.5,29.95,ESE,111,0.0,0.0,83,0.03,,---,0.05,VWS V14.01,2013-09-03 11:40:00,
2013-09-03 04:45:00,61.8,56.6,29.95,ESE,111,0.0,0.0,83,0.03,,---,0.05,VWS V14.01,2013-09-03 11:45:00,
2013-09-03 04:50:00,61.7,56.5,29.95,ESE,108,0.0,0.0,83,0.03,,---,0.05,VWS V14.01,2013-09-03 11:50:00,
2013-09-03 04:55:00,61.7,56.2,29.95,ESE,107,0.0,0.0,82,0.03,,---,0.05,VWS V14.01,2013-09-03 11:55:00,
2013-09-03 05:00:00,61.7,55.8,29.94,WNW,288,1.0,2.0,81,0.02,,---,0.05,VWS V14.01,2013-09-03 12:00:00,
2013-09-03 05:05:00,61.4,55.9,29.93,ENE,65,0.0,2.0,82,0.02,,---,0.05,VWS V14.01,2013-09-03 12:05:00,
2013-09-03 05:10:00,61.1,55.9,29.94,NNW,334,0.0,4.0,83,0.02,,---,0.05,VWS V14.01,2013-09-03 12:10:00,
2013-09-03 05:15:00,60.9,55.7,29.94,East,90,1.0,2.0,83,0.02,,---,0.05,VWS V14.01,2013-09-03 12:15:00,
2013-09-03 05:20:00,60.6,55.4,29.93,North,6,1.0,2.0,83,0.02,,---,0.05,VWS V14.01,2013-09-03 12:20:00,
2013-09-03 05:25:00,60.3,55.1,29.94,NNE,25,0.0,2.0,83,0.02,,---,0.05,VWS V14.01,2013-09-03 12:25:00,
2013-09-03 05:30:00,60.2,54.7,29.95,NNE,26,0.0,0.0,82,0.02,,---,0.05,VWS V14.01,2013-09-03 12:30:00,
2013-09-03 05:35:00,60.1,54.6,29.97,SW,220,1.0,2.0,82,0.02,,---,0.05,VWS V14.01,2013-09-03 12:35:00,
2013-09-03 05:40:00,60.1,54.3,29.96,West,262,0.0,1.0,81,0.01,,---,0.05,VWS V14.01,2013-09-03 12:40:00,
2013-09-03 05:45:00,60.2,54.4,29.95,NNE,12,0.0,1.0,81,0.02,,---,0.07,VWS V14.01,2013-09-03 12:45:00,
2013-09-03 05:50:00,60.3,54.1,29.95,NNE,29,1.0,2.0,80,0.03,,---,0.08,VWS V14.01,2013-09-03 12:50:00,
2013-09-03 05:55:00,60.4,53.9,29.95,NNE,28,0.0,0.0,79,0.04,,---,0.09,VWS V14.01,2013-09-03 12:55:00,
2013-09-03 06:00:00,60.5,54.0,29.95,NNE,29,0.0,1.0,79,0.05,,---,0.10,VWS V14.01,2013-09-03 13:00:00,
2013-09-03 06:05:00,60.6,54.1,29.97,ESE,122,1.0,1.0,79,0.05,,---,0.10,VWS V14.01,2013-09-03 13:05:00,
2013-09-03 06:10:00,60.6,53.7,29.98,SSE,163,0.0,2.0,78,0.05,,---,0.10,VWS V14.01,2013-09-03 13:10:00,
2013-09-03 06:15:00,60.6,53.7,29.96,SSE,167,0.0,0.0,78,0.06,,---,0.11,VWS V14.01,2013-09-03 13:15:00,
2013-09-03 06:20:00,60.7,53.8,29.96,SSE,167,0.0,1.0,78,0.08,,---,0.13,VWS V14.01,2013-09-03 13:20:00,
2013-09-03 06:25:00,60.9,54.0,29.96,SSE,166,0.0,0.0,78,0.09,,---,0.14,VWS V14.01,2013-09-03 13:25:00,
2013-09-03 06:30:00,61.0,54.1,29.95,SE,134,0.0,1.0,78,0.09,,---,0.14,VWS V14.01,2013-09-03 13:30:00,
2013-09-03 06:35:00,61.1,54.2,29.96,East,92,0.0,2.0,78,0.09,,---,0.14,VWS V14.01,2013-09-03 13:35:00,
2013-09-03 06:40:00,61.1,54.2,29.95,NNW,345,0.0,1.0,78,0.09,,---,0.14,VWS V14.01,2013-09-03 13:40:00,
2013-09-03 06:45:00,61.0,54.1,29.96,NE,41,0.0,1.0,78,0.08,,---,0.14,VWS V14.01,2013-09-03 13:45:00,
2013-09-03 06:50:00,61.0,54.1,29.96,NE,41,0.0,0.0,78,0.07,,---,0.14,VWS V14.01,2013-09-03 13:50:00,
2013-09-03 06:55:00,60.9,54.0,29.96,NE,41,0.0,1.0,78,0.06,,---,0.14,VWS V14.01,2013-09-03 13:55:00,
2013-09-03 07:00:00,61.0,54.1,29.96,NNE,32,0.0,1.0,78,0.06,,---,0.15,VWS V14.01,2013-09-03 14:00:00,
2013-09-03 07:05:00,61.0,54.1,29.95,NNE,25,2.0,3.0,78,0.05,,---,0.15,VWS V14.01,2013-09-03 14:05:00,
2013-09-03 07:10:00,61.0,54.1,29.95,NE,41,0.0,2.0,78,0.05,,---,0.15,VWS V14.01,2013-09-03 14:10:00,
2013-09-03 07:15:00,61.0,54.1,29.95,NE,51,0.0,1.0,78,0.04,,---,0.15,VWS V14.01,2013-09-03 14:15:00,
2013-09-03 07:20:00,61.0,54.1,29.96,NE,51,0.0,1.0,78,0.03,,---,0.15,VWS V14.01,2013-09-03 14:20:00,
2013-09-03 07:25:00,61.1,54.2,29.96,ENE,69,0.0,1.0,78,0.01,,---,0.15,VWS V14.01,2013-09-03 14:25:00,
2013-09-03 07:30:00,61.1,54.2,29.97,ESE,103,2.0,2.0,78,0.01,,---,0.15,VWS V14.01,2013-09-03 14:30:00,
2013-09-03 07:35:00,61.2,54.3,29.98,East,91,0.0,5.0,78,0.01,,---,0.15,VWS V14.01,2013-09-03 14:35:00,
2013-09-03 07:40:00,61.2,54.3,29.97,East,101,0.0,2.0,78,0.01,,---,0.15,VWS V14.01,2013-09-03 14:40:00,
2013-09-03 07:45:00,61.2,54.6,29.96,NNW,348,0.0,3.0,79,0.01,,---,0.15,VWS V14.01,2013-09-03 14:45:00,
2013-09-03 07:50:00,61.2,54.6,29.97,East,94,1.0,2.0,79,0.01,,---,0.15,VWS V14.01,2013-09-03 14:50:00,
2013-09-03 07:55:00,61.2,54.6,29.98,ESE,103,0.0,0.0,79,0.01,,---,0.15,VWS V14.01,2013-09-03 14:55:00,
2013-09-03 08:00:00,61.2,54.6,29.97,NE,40,0.0,1.0,79,0.00,,---,0.15,VWS V14.01,2013-09-03 15:00:00,
2013-09-03 08:05:00,61.3,54.7,29.96,NE,40,0.0,1.0,79,0.00,,---,0.15,VWS V14.01,2013-09-03 15:05:00,
2013-09-03 08:10:00,61.4,54.8,29.96,East,92,0.0,1.0,79,0.00,,---,0.15,VWS V14.01,2013-09-03 15:10:00,
2013-09-03 08:15:00,61.5,54.9,29.96,NE,56,1.0,1.0,79,0.00,,---,0.15,VWS V14.01,2013-09-03 15:15:00,
2013-09-03 08:20:00,61.6,55.0,29.96,North,357,0.0,4.0,79,0.00,,---,0.15,VWS V14.01,2013-09-03 15:20:00,
2013-09-03 08:25:00,61.7,55.1,29.96,SE,129,0.0,1.0,79,0.00,,---,0.15,VWS V14.01,2013-09-03 15:25:00,
2013-09-03 08:30:00,61.7,55.5,29.97,ESE,119,0.0,0.0,80,0.00,,---,0.15,VWS V14.01,2013-09-03 15:30:00,
2013-09-03 08:35:00,61.7,55.5,29.97,ESE,119,0.0,0.0,80,0.00,,---,0.15,VWS V14.01,2013-09-03 15:35:00,
2013-09-03 08:40:00,61.7,55.5,29.97,ESE,120,0.0,0.0,80,0.00,,---,0.15,VWS V14.01,2013-09-03 15:40:00,
2013-09-03 08:44:00,61.7,55.5,29.98,ESE,120,0.0,0.0,80,0.00,,---,0.15,VWS V14.01,2013-09-03 15:44:00,
2013-09-03 08:45:00,61.7,55.5,29.98,ESE,119,0.0,0.0,80,0.00,,---,0.15,VWS V14.01,2013-09-03 15:45:00,
2013-09-03 08:49:00,61.7,55.5,29.98,SSE,155,0.0,0.0,80,0.00,,---,0.15,VWS V14.01,2013-09-03 15:49:00,
2013-09-03 08:50:00,61.7,55.5,29.97,SW,231,1.0,1.0,80,0.00,,---,0.15,VWS V14.01,2013-09-03 15:50:00,
2013-09-03 08:54:00,61.7,55.5,29.97,WNW,286,1.0,2.0,80,0.00,,---,0.15,VWS V14.01,2013-09-03 15:54:00,
2013-09-03 08:55:00,61.8,55.6,29.97,West,276,1.0,3.0,80,0.00,,---,0.15,VWS V14.01,2013-09-03 15:55:00,
2013-09-03 08:59:00,61.7,55.5,29.97,WNW,295,4.0,5.0,80,0.00,,---,0.15,VWS V14.01,2013-09-03 15:59:00,
2013-09-03 09:00:00,61.4,55.9,29.97,WNW,284,2.0,5.0,82,0.00,,---,0.15,VWS V14.01,2013-09-03 16:00:00,
2013-09-03 09:04:00,61.2,55.0,29.97,NW,307,3.0,3.0,80,0.00,,---,0.15,VWS V14.01,2013-09-03 16:04:00,
2013-09-03 09:05:00,61.2,55.0,29.97,WNW,290,3.0,3.0,80,0.00,,---,0.15,VWS V14.01,2013-09-03 16:05:00,
2013-09-03 09:09:00,61.1,54.9,29.97,NW,318,4.0,6.0,80,0.00,,---,0.15,VWS V14.01,2013-09-03 16:09:00,
2013-09-03 09:10:00,61.0,54.8,29.97,WNW,295,1.0,6.0,80,0.00,,---,0.15,VWS V14.01,2013-09-03 16:10:00,
2013-09-03 09:14:00,60.9,54.3,29.98,NW,304,0.0,4.0,79,0.00,,---,0.15,VWS V14.01,2013-09-03 16:14:00,
2013-09-03 09:15:00,60.9,54.3,29.98,WNW,297,2.0,4.0,79,0.00,,---,0.15,VWS V14.01,2013-09-03 16:15:00,
2013-09-03 09:19:00,60.7,54.5,29.98,WNW,296,1.0,2.0,80,0.00,,---,0.15,VWS V14.01,2013-09-03 16:19:00,
2013-09-03 09:20:00,60.6,54.4,29.98,West,281,2.0,3.0,80,0.00,,---,0.15,VWS V14.01,2013-09-03 16:20:00,
2013-09-03 09:24:00,60.5,54.3,29.98,WNW,300,1.0,2.0,80,0.00,,---,0.15,VWS V14.01,2013-09-03 16:24:00,
2013-09-03 09:25:00,60.4,54.2,29.98,WNW,293,1.0,3.0,80,0.00,,---,0.15,VWS V14.01,2013-09-03 16:25:00,
2013-09-03 09:29:00,60.4,54.2,29.98,NW,305,2.0,3.0,80,0.00,,---,0.15,VWS V14.01,2013-09-03 16:29:00,
2013-09-03 09:30:00,60.4,53.9,29.98,NW,304,1.0,3.0,79,0.00,,---,0.15,VWS V14.01,2013-09-03 16:30:00,
2013-09-03 09:34:00,60.4,53.9,29.97,WNW,297,1.0,3.0,79,0.00,,---,0.15,VWS V14.01,2013-09-03 16:34:00,
2013-09-03 09:35:00,60.5,54.0,29.97,NNW,334,3.0,3.0,79,0.00,,---,0.15,VWS V14.01,2013-09-03 16:35:00,
2013-09-03 09:39:00,60.8,53.9,29.97,WNW,296,2.0,3.0,78,0.00,,---,0.15,VWS V14.01,2013-09-03 16:39:00,
2013-09-03 09:40:00,60.9,54.0,29.98,WNW,291,1.0,3.0,78,0.00,,---,0.15,VWS V14.01,2013-09-03 16:40:00,
2013-09-03 09:44:00,60.9,54.3,29.98,NNW,328,2.0,5.0,79,0.00,,---,0.15,VWS V14.01,2013-09-03 16:44:00,
2013-09-03 09:45:00,60.9,54.3,29.98,WNW,296,2.0,5.0,79,0.00,,---,0.15,VWS V14.01,2013-09-03 16:45:00,
2013-09-03 09:49:00,60.9,54.3,29.98,WNW,300,3.0,5.0,79,0.00,,---,0.15,VWS V14.01,2013-09-03 16:49:00,
2013-09-03 09:50:00,60.9,54.7,29.98,NW,308,4.0,5.0,80,0.00,,---,0.15,VWS V14.01,2013-09-03 16:50:00,
2013-09-03 09:54:00,60.8,54.6,29.98,West,281,3.0,4.0,80,0.00,,---,0.15,VWS V14.01,2013-09-03 16:54:00,
2013-09-03 09:55:00,60.8,54.6,29.98,WNW,295,1.0,4.0,80,0.00,,---,0.15,VWS V14.01,2013-09-03 16:55:00,
2013-09-03 09:59:00,60.9,54.7,29.99,WNW,288,1.0,3.0,80,0.00,,---,0.15,VWS V14.01,2013-09-03 16:59:00,
2013-09-03 10:00:00,60.9,54.7,29.99,WNW,296,3.0,3.0,80,0.00,,---,0.15,VWS V14.01,2013-09-03 17:00:00,
2013-09-03 10:04:00,60.9,55.0,29.98,WNW,296,2.0,4.0,81,0.00,,---,0.15,VWS V14.01,2013-09-03 17:04:00,
2013-09-03 10:05:00,60.9,55.0,29.98,WNW,303,1.0,4.0,81,0.00,,---,0.15,VWS V14.01,2013-09-03 17:05:00,
2013-09-03 10:09:00,61.0,55.1,29.98,NW,321,1.0,3.0,81,0.00,,---,0.15,VWS V14.01,2013-09-03 17:09:00,
2013-09-03 10:10:00,60.9,55.0,29.98,WNW,302,3.0,3.0,81,0.00,,---,0.15,VWS V14.01,2013-09-03 17:10:00,
2013-09-03 10:14:00,61.0,55.1,29.98,West,281,4.0,5.0,81,0.00,,---,0.15,VWS V14.01,2013-09-03 17:14:00,
2013-09-03 10:15:00,61.0,55.5,29.98,WNW,292,3.0,6.0,82,0.00,,---,0.15,VWS V14.01,2013-09-03 17:15:00,
2013-09-03 10:19:00,61.2,55.3,29.98,WNW,302,1.0,3.0,81,0.00,,---,0.15,VWS V14.01,2013-09-03 17:19:00,
2013-09-03 10:20:00,61.2,55.3,29.98,WNW,292,3.0,4.0,81,0.00,,---,0.15,VWS V14.01,2013-09-03 17:20:00,
2013-09-03 10:24:00,61.3,55.4,29.98,West,278,3.0,4.0,81,0.00,,---,0.15,VWS V14.01,2013-09-03 17:24:00,
2013-09-03 10:25:00,61.3,56.1,29.98,WNW,293,3.0,6.0,83,0.00,,---,0.15,VWS V14.01,2013-09-03 17:25:00,
2013-09-03 10:29:00,61.3,56.1,29.98,WSW,243,1.0,4.0,83,0.00,,---,0.15,VWS V14.01,2013-09-03 17:29:00,
2013-09-03 10:30:00,61.3,55.8,29.98,West,281,3.0,4.0,82,0.00,,---,0.15,VWS V14.01,2013-09-03 17:30:00,
2013-09-03 10:34:00,61.3,56.1,29.98,WNW,297,4.0,4.0,83,0.00,,---,0.15,VWS V14.01,2013-09-03 17:34:00,
2013-09-03 10:35:00,61.4,56.2,29.98,WNW,287,1.0,4.0,83,0.00,,---,0.15,VWS V14.01,2013-09-03 17:35:00,
2013-09-03 10:39:00,61.6,55.7,29.98,NW,316,0.0,2.0,81,0.00,,---,0.15,VWS V14.01,2013-09-03 17:39:00,
2013-09-03 10:40:00,61.7,56.2,29.98,WNW,288,0.0,3.0,82,0.00,,---,0.15,VWS V14.01,2013-09-03 17:40:00,
2013-09-03 10:44:00,61.8,56.2,29.98,NW,315,1.0,2.0,82,0.00,,---,0.15,VWS V14.01,2013-09-03 17:44:00,
2013-09-03 10:45:00,61.9,56.7,29.98,NW,305,0.0,3.0,83,0.00,,---,0.15,VWS V14.01,2013-09-03 17:45:00,
2013-09-03 10:49:00,62.0,56.8,29.98,WNW,293,2.0,3.0,83,0.00,,---,0.15,VWS V14.01,2013-09-03 17:49:00,
2013-09-03 10:50:00,62.0,57.1,29.98,NW,316,3.0,5.0,84,0.00,,---,0.15,VWS V14.01,2013-09-03 17:50:00,
2013-09-03 10:54:00,62.1,57.2,29.98,WNW,285,0.0,4.0,84,0.00,,---,0.15,VWS V14.01,2013-09-03 17:54:00,
2013-09-03 10:55:00,62.2,57.0,29.99,WNW,291,3.0,4.0,83,0.00,,---,0.15,VWS V14.01,2013-09-03 17:55:00,
2013-09-03 10:59:00,62.2,57.3,29.99,WNW,290,5.0,6.0,84,0.00,,---,0.15,VWS V14.01,2013-09-03 17:59:00,
2013-09-03 11:00:00,62.1,57.5,29.99,WNW,302,4.0,6.0,85,0.00,,---,0.15,VWS V14.01,2013-09-03 18:00:00,
2013-09-03 11:04:00,62.1,57.5,29.99,WNW,298,5.0,6.0,85,0.00,,---,0.15,VWS V14.01,2013-09-03 18:04:00,
2013-09-03 11:05:00,62.1,57.5,29.98,WNW,295,2.0,6.0,85,0.00,,---,0.15,VWS V14.01,2013-09-03 18:05:00,
2013-09-03 11:09:00,62.1,57.5,29.98,NW,310,2.0,6.0,85,0.00,,---,0.15,VWS V14.01,2013-09-03 18:09:00,
2013-09-03 11:10:00,62.1,57.2,29.98,WNW,290,3.0,6.0,84,0.00,,---,0.15,VWS V14.01,2013-09-03 18:10:00,
2013-09-03 11:14:00,62.1,57.5,29.98,WNW,296,4.0,6.0,85,0.00,,---,0.15,VWS V14.01,2013-09-03 18:14:00,
2013-09-03 11:15:00,62.1,57.5,29.98,WNW,295,0.0,6.0,85,0.00,,---,0.15,VWS V14.01,2013-09-03 18:15:00,
2013-09-03 11:19:00,62.2,57.3,29.99,West,279,0.0,3.0,84,0.00,,---,0.15,VWS V14.01,2013-09-03 18:19:00,
2013-09-03 11:20:00,62.2,57.6,29.99,NW,322,2.0,5.0,85,0.00,,---,0.15,VWS V14.01,2013-09-03 18:20:00,
2013-09-03 11:24:00,62.3,57.7,29.99,WNW,300,1.0,3.0,85,0.00,,---,0.15,VWS V14.01,2013-09-03 18:24:00,
2013-09-03 11:25:00,62.3,57.7,29.99,NE,56,0.0,3.0,85,0.00,,---,0.15,VWS V14.01,2013-09-03 18:25:00,
2013-09-03 11:29:00,62.4,57.5,29.99,NE,55,0.0,0.0,84,0.00,,---,0.15,VWS V14.01,2013-09-03 18:29:00,
2013-09-03 11:30:00,62.5,57.9,29.99,NW,321,0.0,2.0,85,0.00,,---,0.15,VWS V14.01,2013-09-03 18:30:00,
2013-09-03 11:34:00,62.6,58.0,29.99,NNE,30,0.0,1.0,85,0.00,,---,0.15,VWS V14.01,2013-09-03 18:34:00,
2013-09-03 11:35:00,62.7,58.1,29.99,ENE,76,0.0,1.0,85,0.00,,---,0.15,VWS V14.01,2013-09-03 18:35:00,
2013-09-03 11:39:00,62.9,58.3,29.99,East,83,0.0,1.0,85,0.00,,---,0.15,VWS V14.01,2013-09-03 18:39:00,
2013-09-03 11:40:00,62.9,58.3,29.99,ENE,63,0.0,1.0,85,0.00,,---,0.15,VWS V14.01,2013-09-03 18:40:00,
2013-09-03 11:44:00,63.0,58.4,29.99,NNE,30,0.0,0.0,85,0.00,,---,0.15,VWS V14.01,2013-09-03 18:44:00,
2013-09-03 11:45:00,63.1,58.5,29.99,NE,47,0.0,2.0,85,0.01,,---,0.16,VWS V14.01,2013-09-03 18:45:00,
2013-09-03 11:49:00,63.1,58.5,29.99,NE,41,1.0,1.0,85,0.01,,---,0.16,VWS V14.01,2013-09-03 18:49:00,
2013-09-03 11:50:00,63.2,58.6,29.99,North,8,0.0,1.0,85,0.01,,---,0.16,VWS V14.01,2013-09-03 18:50:00,
2013-09-03 11:54:00,63.3,58.7,29.99,ESE,108,0.0,2.0,85,0.01,,---,0.16,VWS V14.01,2013-09-03 18:54:00,
2013-09-03 11:55:00,63.2,58.6,29.99,NNE,19,0.0,2.0,85,0.01,,---,0.16,VWS V14.01,2013-09-03 18:55:00,
2013-09-03 11:59:00,63.2,58.6,29.99,NW,320,0.0,2.0,85,0.01,,---,0.16,VWS V14.01,2013-09-03 18:59:00,
2013-09-03 12:00:00,63.2,59.0,29.99,NW,316,1.0,4.0,86,0.01,,---,0.16,VWS V14.01,2013-09-03 19:00:00,
2013-09-03 12:04:00,63.1,58.8,29.99,NE,34,0.0,3.0,86,0.01,,---,0.16,VWS V14.01,2013-09-03 19:04:00,
2013-09-03 12:05:00,63.2,58.6,29.99,ESE,109,0.0,3.0,85,0.01,,---,0.16,VWS V14.01,2013-09-03 19:05:00,
2013-09-03 12:09:00,63.3,58.7,29.99,ENE,68,1.0,1.0,85,0.01,,---,0.16,VWS V14.01,2013-09-03 19:09:00,
2013-09-03 12:10:00,63.4,58.8,30.00,WNW,303,1.0,1.0,85,0.01,,---,0.16,VWS V14.01,2013-09-03 19:10:00,
2013-09-03 12:14:00,63.4,59.2,30.00,WNW,293,2.0,2.0,86,0.01,,---,0.16,VWS V14.01,2013-09-03 19:14:00,
2013-09-03 12:15:00,63.3,59.0,30.00,WNW,293,1.0,2.0,86,0.01,,---,0.16,VWS V14.01,2013-09-03 19:15:00,
2013-09-03 12:19:00,63.3,58.7,30.00,WNW,297,2.0,2.0,85,0.01,,---,0.16,VWS V14.01,2013-09-03 19:19:00,
2013-09-03 12:20:00,63.3,59.0,30.00,WNW,293,0.0,3.0,86,0.01,,---,0.16,VWS V14.01,2013-09-03 19:20:00,
2013-09-03 12:24:00,63.4,58.8,30.00,WNW,294,0.0,1.0,85,0.01,,---,0.16,VWS V14.01,2013-09-03 19:24:00,
2013-09-03 12:25:00,63.5,59.2,30.00,WNW,282,1.0,2.0,86,0.01,,---,0.16,VWS V14.01,2013-09-03 19:25:00,
2013-09-03 12:29:00,63.7,59.1,30.00,West,281,0.0,1.0,85,0.01,,---,0.16,VWS V14.01,2013-09-03 19:29:00,
2013-09-03 12:30:00,64.0,59.4,30.00,NW,315,0.0,1.0,85,0.01,,---,0.16,VWS V14.01,2013-09-03 19:30:00,
2013-09-03 12:34:00,64.2,59.9,30.00,WNW,292,1.0,2.0,86,0.01,,---,0.16,VWS V14.01,2013-09-03 19:34:00,
2013-09-03 12:35:00,64.1,59.8,30.00,WNW,296,0.0,2.0,86,0.01,,---,0.16,VWS V14.01,2013-09-03 19:35:00,
2013-09-03 12:39:00,64.2,59.9,30.00,WNW,292,2.0,3.0,86,0.01,,---,0.16,VWS V14.01,2013-09-03 19:39:00,
2013-09-03 12:40:00,64.3,59.7,30.00,WNW,300,1.0,3.0,85,0.01,,---,0.16,VWS V14.01,2013-09-03 19:40:00,
2013-09-03 12:44:00,64.4,60.1,30.00,NW,320,0.0,2.0,86,0.01,,---,0.16,VWS V14.01,2013-09-03 19:44:00,
2013-09-03 12:45:00,64.6,60.0,30.00,NW,320,0.0,2.0,85,0.01,,---,0.16,VWS V14.01,2013-09-03 19:45:00,
2013-09-03 12:49:00,64.8,60.2,29.99,NW,309,0.0,2.0,85,0.00,,---,0.16,VWS V14.01,2013-09-03 19:49:00,
2013-09-03 12:50:00,65.0,60.4,29.99,NW,309,1.0,2.0,85,0.00,,---,0.16,VWS V14.01,2013-09-03 19:50:00,
2013-09-03 12:54:00,65.0,60.4,29.99,NW,321,1.0,2.0,85,0.00,,---,0.16,VWS V14.01,2013-09-03 19:54:00,
2013-09-03 12:55:00,65.2,60.6,29.99,NE,54,1.0,2.0,85,0.00,,---,0.16,VWS V14.01,2013-09-03 19:55:00,
2013-09-03 12:59:00,65.4,60.8,29.99,NW,307,2.0,2.0,85,0.00,,---,0.16,VWS V14.01,2013-09-03 19:59:00,
2013-09-03 13:00:00,65.5,60.9,29.99,WNW,300,1.0,2.0,85,0.00,,---,0.16,VWS V14.01,2013-09-03 20:00:00,
2013-09-03 13:04:00,65.5,60.9,29.99,WNW,290,2.0,4.0,85,0.00,,---,0.16,VWS V14.01,2013-09-03 20:04:00,
2013-09-03 13:05:00,65.5,60.5,29.99,West,274,1.0,4.0,84,0.00,,---,0.16,VWS V14.01,2013-09-03 20:05:00,
2013-09-03 13:09:00,65.7,61.1,29.99,WNW,297,0.0,2.0,85,0.00,,---,0.16,VWS V14.01,2013-09-03 20:09:00,
2013-09-03 13:10:00,66.2,61.6,29.99,North,9,0.0,2.0,85,0.00,,---,0.16,VWS V14.01,2013-09-03 20:10:00,
2013-09-03 13:14:00,66.8,61.8,29.99,NNW,330,1.0,3.0,84,0.00,,---,0.16,VWS V14.01,2013-09-03 20:14:00,
2013-09-03 13:15:00,67.1,61.8,29.99,WNW,291,1.0,3.0,83,0.00,,---,0.16,VWS V14.01,2013-09-03 20:15:00,
2013-09-03 13:19:00,67.0,61.3,29.99,WNW,284,1.0,4.0,82,0.00,,---,0.16,VWS V14.01,2013-09-03 20:19:00,
2013-09-03 13:20:00,66.8,61.5,29.99,NW,326,1.0,4.0,83,0.00,,---,0.16,VWS V14.01,2013-09-03 20:20:00,
2013-09-03 13:24:00,66.9,61.6,29.99,NNW,338,0.0,1.0,83,0.00,,---,0.16,VWS V14.01,2013-09-03 20:24:00,
2013-09-03 13:25:00,67.3,62.0,29.99,North,354,0.0,1.0,83,0.00,,---,0.16,VWS V14.01,2013-09-03 20:25:00,
2013-09-03 13:29:00,67.7,62.4,29.99,North,354,0.0,1.0,83,0.00,,---,0.16,VWS V14.01,2013-09-03 20:29:00,
2013-09-03 13:30:00,68.0,62.3,29.99,NW,314,1.0,3.0,82,0.00,,---,0.16,VWS V14.01,2013-09-03 20:30:00,
2013-09-03 13:34:00,67.8,61.4,29.99,NW,321,3.0,3.0,80,0.00,,---,0.16,VWS V14.01,2013-09-03 20:34:00,
2013-09-03 13:35:00,67.6,61.2,29.99,NW,309,2.0,4.0,80,0.00,,---,0.16,VWS V14.01,2013-09-03 20:35:00,
2013-09-03 13:39:00,67.5,61.8,29.99,NW,309,3.0,3.0,82,0.00,,---,0.16,VWS V14.01,2013-09-03 20:39:00,
2013-09-03 13:40:00,67.5,61.8,29.99,NW,304,3.0,6.0,82,0.00,,---,0.16,VWS V14.01,2013-09-03 20:40:00,
2013-09-03 13:44:00,67.4,61.7,29.99,WNW,284,2.0,5.0,82,0.00,,---,0.16,VWS V14.01,2013-09-03 20:44:00,
2013-09-03 13:45:00,67.2,61.5,29.99,WNW,288,5.0,6.0,82,0.00,,---,0.16,VWS V14.01,2013-09-03 20:45:00,
2013-09-03 13:49:00,66.9,61.6,29.99,NW,317,5.0,8.0,83,0.00,,---,0.16,VWS V14.01,2013-09-03 20:49:00,
2013-09-03 13:50:00,66.7,61.0,29.99,WNW,290,2.0,9.0,82,0.00,,---,0.16,VWS V14.01,2013-09-03 20:50:00,
2013-09-03 13:54:00,66.7,61.0,29.99,WNW,288,1.0,4.0,82,0.00,,---,0.16,VWS V14.01,2013-09-03 20:54:00,
2013-09-03 13:55:00,66.8,61.1,29.99,WNW,288,2.0,4.0,82,0.00,,---,0.16,VWS V14.01,2013-09-03 20:55:00,
2013-09-03 13:59:00,66.9,61.2,29.99,NW,307,4.0,4.0,82,0.00,,---,0.16,VWS V14.01,2013-09-03 20:59:00,
2013-09-03 14:00:00,67.0,61.3,29.99,WNW,302,6.0,6.0,82,0.00,,---,0.16,VWS V14.01,2013-09-03 21:00:00,
2013-09-03 14:04:00,66.9,61.2,29.99,WNW,296,4.0,6.0,82,0.00,,---,0.16,VWS V14.01,2013-09-03 21:04:00,
2013-09-03 14:05:00,67.0,61.3,29.99,NW,311,2.0,6.0,82,0.00,,---,0.16,VWS V14.01,2013-09-03 21:05:00,
2013-09-03 14:09:00,67.5,61.8,29.99,WNW,300,4.0,4.0,82,0.00,,---,0.16,VWS V14.01,2013-09-03 21:09:00,
2013-09-03 14:10:00,67.9,61.9,29.99,NW,323,4.0,4.0,81,0.00,,---,0.16,VWS V14.01,2013-09-03 21:10:00,
2013-09-03 14:14:00,68.0,61.6,29.99,WSW,250,0.0,6.0,80,0.00,,---,0.16,VWS V14.01,2013-09-03 21:14:00,
2013-09-03 14:15:00,68.0,62.0,29.99,NW,307,1.0,6.0,81,0.00,,---,0.16,VWS V14.01,2013-09-03 21:15:00,
2013-09-03 14:19:00,68.1,62.1,29.99,NW,325,1.0,3.0,81,0.00,,---,0.16,VWS V14.01,2013-09-03 21:19:00,
2013-09-03 14:20:00,68.3,62.2,30.00,East,98,0.0,3.0,81,0.00,,---,0.16,VWS V14.01,2013-09-03 21:20:00,
2013-09-03 14:24:00,68.5,62.1,30.00,SW,233,0.0,1.0,80,0.00,,---,0.16,VWS V14.01,2013-09-03 21:24:00,
2013-09-03 14:25:00,68.6,62.2,30.00,NW,310,0.0,3.0,80,0.00,,---,0.16,VWS V14.01,2013-09-03 21:25:00,
2013-09-03 14:29:00,68.6,62.2,30.00,NW,316,2.0,3.0,80,0.00,,---,0.16,VWS V14.01,2013-09-03 21:29:00,
2013-09-03 14:30:00,68.7,62.3,30.00,NW,305,1.0,4.0,80,0.00,,---,0.16,VWS V14.01,2013-09-03 21:30:00,
2013-09-03 14:34:00,68.9,62.5,30.00,WNW,300,1.0,2.0,80,0.00,,---,0.16,VWS V14.01,2013-09-03 21:34:00,
2013-09-03 14:35:00,69.2,62.4,30.00,WNW,296,4.0,4.0,79,0.00,,---,0.16,VWS V14.01,2013-09-03 21:35:00,
2013-09-03 14:39:00,69.1,62.3,30.00,NNW,327,2.0,5.0,79,0.00,,---,0.16,VWS V14.01,2013-09-03 21:39:00,
2013-09-03 14:40:00,69.0,61.9,30.00,WNW,290,4.0,5.0,78,0.00,,---,0.16,VWS V14.01,2013-09-03 21:40:00,
2013-09-03 14:44:00,68.9,61.8,29.99,WNW,283,4.0,6.0,78,0.00,,---,0.16,VWS V14.01,2013-09-03 21:44:00,
2013-09-03 14:45:00,68.6,61.5,29.99,NW,310,3.0,7.0,78,0.00,,---,0.16,VWS V14.01,2013-09-03 21:45:00,
2013-09-03 14:49:00,68.5,61.7,29.99,WNW,288,1.0,5.0,79,0.00,,---,0.16,VWS V14.01,2013-09-03 21:49:00,
2013-09-03 14:50:00,68.6,61.8,29.99,WNW,290,4.0,8.0,79,0.00,,---,0.16,VWS V14.01,2013-09-03 21:50:00,
2013-09-03 14:54:00,68.6,61.5,29.99,NW,317,3.0,5.0,78,0.00,,---,0.16,VWS V14.01,2013-09-03 21:54:00,
2013-09-03 14:55:00,68.6,61.5,29.99,NNW,333,3.0,5.0,78,0.00,,---,0.16,VWS V14.01,2013-09-03 21:55:00,
2013-09-03 14:59:00,68.6,61.8,29.99,WNW,294,5.0,6.0,79,0.00,,---,0.16,VWS V14.01,2013-09-03 21:59:00,
2013-09-03 15:00:00,68.7,61.6,29.99,NW,309,2.0,6.0,78,0.00,,---,0.16,VWS V14.01,2013-09-03 22:00:00,
2013-09-03 15:04:00,69.0,62.2,29.99,NNW,337,3.0,5.0,79,0.00,,---,0.16,VWS V14.01,2013-09-03 22:04:00,
2013-09-03 15:05:00,69.8,62.6,29.99,NNE,18,2.0,5.0,78,0.00,,---,0.16,VWS V14.01,2013-09-03 22:05:00,
2013-09-03 15:09:00,70.1,62.6,29.99,WNW,298,5.0,6.0,77,0.00,,---,0.16,VWS V14.01,2013-09-03 22:09:00,
2013-09-03 15:10:00,70.0,62.5,29.99,West,278,6.0,6.0,77,0.00,,---,0.16,VWS V14.01,2013-09-03 22:10:00,
2013-09-03 15:14:00,70.1,62.6,29.99,West,266,2.0,6.0,77,0.00,,---,0.16,VWS V14.01,2013-09-03 22:14:00,
2013-09-03 15:15:00,70.6,63.0,29.99,West,278,5.0,6.0,77,0.00,,---,0.16,VWS V14.01,2013-09-03 22:15:00,
2013-09-03 15:19:00,70.7,62.4,29.99,NW,322,4.0,6.0,75,0.00,,---,0.16,VWS V14.01,2013-09-03 22:19:00,
2013-09-03 15:20:00,70.9,63.0,29.99,NW,311,4.0,6.0,76,0.00,,---,0.16,VWS V14.01,2013-09-03 22:20:00,
2013-09-03 15:24:00,71.1,62.4,29.99,WNW,287,6.0,8.0,74,0.00,,---,0.16,VWS V14.01,2013-09-03 22:24:00,
2013-09-03 15:25:00,70.7,62.0,29.99,NW,323,5.0,9.0,74,0.00,,---,0.16,VWS V14.01,2013-09-03 22:25:00,
2013-09-03 15:29:00,70.2,61.5,29.99,WNW,282,3.0,8.0,74,0.00,,---,0.16,VWS V14.01,2013-09-03 22:29:00,
2013-09-03 15:30:00,70.2,62.3,29.99,NW,304,7.0,8.0,76,0.00,,---,0.16,VWS V14.01,2013-09-03 22:30:00,
2013-09-03 15:34:00,70.2,62.3,29.99,WNW,300,5.0,8.0,76,0.00,,---,0.16,VWS V14.01,2013-09-03 22:34:00,
2013-09-03 15:35:00,70.1,62.6,29.99,NW,311,2.0,8.0,77,0.00,,---,0.16,VWS V14.01,2013-09-03 22:35:00,
2013-09-03 15:39:00,70.3,62.8,29.99,West,274,4.0,7.0,77,0.00,,---,0.16,VWS V14.01,2013-09-03 22:39:00,
2013-09-03 15:40:00,70.6,62.7,29.99,NW,309,2.0,7.0,76,0.00,,---,0.16,VWS V14.01,2013-09-03 22:40:00,
2013-09-03 15:44:00,70.7,62.4,29.99,WNW,291,2.0,4.0,75,0.00,,---,0.16,VWS V14.01,2013-09-03 22:44:00,
2013-09-03 15:45:00,70.7,62.0,29.99,WNW,302,7.0,7.0,74,0.00,,---,0.16,VWS V14.01,2013-09-03 22:45:00,
2013-09-03 15:49:00,70.5,62.2,29.99,WNW,296,2.0,7.0,75,0.00,,---,0.16,VWS V14.01,2013-09-03 22:49:00,
2013-09-03 15:50:00,70.2,61.9,29.99,NW,307,2.0,7.0,75,0.00,,---,0.16,VWS V14.01,2013-09-03 22:50:00,
2013-09-03 15:54:00,70.2,61.9,29.99,NW,323,4.0,5.0,75,0.00,,---,0.16,VWS V14.01,2013-09-03 22:54:00,
2013-09-03 15:55:00,70.0,62.1,29.99,WNW,288,3.0,5.0,76,0.00,,---,0.16,VWS V14.01,2013-09-03 22:55:00,
2013-09-03 15:59:00,69.9,62.0,29.99,WNW,286,4.0,6.0,76,0.00,,---,0.16,VWS V14.01,2013-09-03 22:59:00,
2013-09-03 16:00:00,69.7,61.8,29.99,NW,314,6.0,7.0,76,0.00,,---,0.16,VWS V14.01,2013-09-03 23:00:00,
2013-09-03 16:04:00,69.4,61.9,29.99,NW,306,5.0,8.0,77,0.00,,---,0.16,VWS V14.01,2013-09-03 23:04:00,
2013-09-03 16:05:00,69.3,62.2,29.99,NW,319,4.0,8.0,78,0.00,,---,0.16,VWS V14.01,2013-09-03 23:05:00,
2013-09-03 16:09:00,69.3,61.8,29.99,WNW,293,3.0,5.0,77,0.00,,---,0.16,VWS V14.01,2013-09-03 23:09:00,
2013-09-03 16:10:00,69.5,62.7,29.99,WNW,300,3.0,5.0,79,0.00,,---,0.16,VWS V14.01,2013-09-03 23:10:00,
2013-09-03 16:14:00,69.6,62.1,29.99,West,279,2.0,4.0,77,0.00,,---,0.16,VWS V14.01,2013-09-03 23:14:00,
2013-09-03 16:15:00,69.5,62.0,29.99,WNW,290,4.0,4.0,77,0.00,,---,0.16,VWS V14.01,2013-09-03 23:15:00,
2013-09-03 16:19:00,69.6,62.1,29.99,WNW,293,2.0,4.0,77,0.00,,---,0.16,VWS V14.01,2013-09-03 23:19:00,
2013-09-03 16:20:00,69.5,62.0,29.99,WNW,288,3.0,4.0,77,0.00,,---,0.16,VWS V14.01,2013-09-03 23:20:00,
2013-09-03 16:24:00,69.6,62.1,29.99,NW,318,2.0,3.0,77,0.00,,---,0.16,VWS V14.01,2013-09-03 23:24:00,
2013-09-03 16:25:00,69.9,62.4,29.99,WNW,298,2.0,4.0,77,0.00,,---,0.16,VWS V14.01,2013-09-03 23:25:00,
2013-09-03 16:29:00,70.0,62.1,29.99,NW,307,1.0,3.0,76,0.00,,---,0.16,VWS V14.01,2013-09-03 23:29:00,
2013-09-03 16:30:00,70.5,62.6,29.99,West,278,1.0,3.0,76,0.00,,---,0.16,VWS V14.01,2013-09-03 23:30:00,
2013-09-03 16:34:00,71.1,62.8,29.99,NW,317,3.0,5.0,75,0.00,,---,0.16,VWS V14.01,2013-09-03 23:34:00,
2013-09-03 16:35:00,71.0,62.3,29.99,WNW,302,3.0,5.0,74,0.00,,---,0.16,VWS V14.01,2013-09-03 23:35:00,
2013-09-03 16:39:00,70.9,62.2,29.99,West,281,2.0,4.0,74,0.00,,---,0.16,VWS V14.01,2013-09-03 23:39:00,
2013-09-03 16:40:00,71.1,62.4,29.99,WNW,296,2.0,4.0,74,0.00,,---,0.16,VWS V14.01,2013-09-03 23:40:00,
2013-09-03 16:44:00,71.1,62.4,29.99,SW,222,1.0,3.0,74,0.00,,---,0.16,VWS V14.01,2013-09-03 23:44:00,
2013-09-03 16:45:00,71.0,62.3,29.99,WNW,296,3.0,4.0,74,0.00,,---,0.16,VWS V14.01,2013-09-03 23:45:00,
2013-09-03 16:49:00,71.1,62.8,29.99,WNW,294,2.0,3.0,75,0.00,,---,0.16,VWS V14.01,2013-09-03 23:49:00,
2013-09-03 16:50:00,71.3,62.2,29.99,WNW,302,1.0,3.0,73,0.00,,---,0.16,VWS V14.01,2013-09-03 23:50:00,
2013-09-03 16:54:00,71.4,61.9,29.98,WNW,291,2.0,5.0,72,0.00,,---,0.16,VWS V14.01,2013-09-03 23:54:00,
2013-09-03 16:55:00,71.1,62.0,29.98,NW,319,1.0,5.0,73,0.00,,---,0.16,VWS V14.01,2013-09-03 23:55:00,
2013-09-03 16:59:00,71.1,62.4,29.98,WNW,295,0.0,2.0,74,0.00,,---,0.16,VWS V14.01,2013-09-03 23:59:00,
2013-09-03 17:00:00,71.1,62.0,29.99,NW,326,1.0,4.0,73,0.00,,---,0.16,VWS V14.01,2013-09-04 00:00:00,
2013-09-03 17:04:00,71.3,62.2,29.99,NW,323,0.0,2.0,73,0.00,,---,0.16,VWS V14.01,2013-09-04 00:04:00,
2013-09-03 17:05:00,71.6,62.5,29.99,NW,323,2.0,2.0,73,0.00,,---,0.16,VWS V14.01,2013-09-04 00:05:00,
2013-09-03 17:09:00,71.5,62.4,29.98,WNW,295,0.0,3.0,73,0.00,,---,0.16,VWS V14.01,2013-09-04 00:09:00,
2013-09-03 17:10:00,71.2,61.7,29.99,WNW,288,1.0,4.0,72,0.00,,---,0.16,VWS V14.01,2013-09-04 00:10:00,
2013-09-03 17:14:00,71.1,62.0,29.99,NW,316,1.0,2.0,73,0.00,,---,0.16,VWS V14.01,2013-09-04 00:14:00,
2013-09-03 17:15:00,71.1,61.6,29.99,WNW,293,2.0,4.0,72,0.00,,---,0.16,VWS V14.01,2013-09-04 00:15:00,
2013-09-03 17:18:00,71.2,62.1,29.99,WNW,287,3.0,4.0,73,0.00,,---,0.16,VWS V14.01,2013-09-04 00:18:00,
2013-09-03 17:20:00,71.6,62.1,29.98,WNW,293,3.0,5.0,72,0.00,,---,0.16,VWS V14.01,2013-09-04 00:20:00,
2013-09-03 17:23:00,71.7,61.8,29.98,NW,309,2.0,4.0,71,0.00,,---,0.16,VWS V14.01,2013-09-04 00:23:00,
2013-09-03 17:25:00,72.0,62.1,29.98,WNW,284,1.0,5.0,71,0.00,,---,0.16,VWS V14.01,2013-09-04 00:25:00,
2013-09-03 17:28:00,72.1,61.8,29.98,WNW,296,3.0,5.0,70,0.00,,---,0.16,VWS V14.01,2013-09-04 00:28:00,
2013-09-03 17:30:00,72.0,61.3,29.98,WNW,295,4.0,5.0,69,0.00,,---,0.16,VWS V14.01,2013-09-04 00:30:00,
2013-09-03 17:33:00,72.1,61.4,29.98,WNW,294,4.0,5.0,69,0.00,,---,0.16,VWS V14.01,2013-09-04 00:33:00,
2013-09-03 17:35:00,72.2,61.5,29.98,WNW,296,3.0,5.0,69,0.00,,---,0.16,VWS V14.01,2013-09-04 00:35:00,
2013-09-03 17:38:00,72.2,61.9,29.98,NW,326,2.0,4.0,70,0.00,,---,0.16,VWS V14.01,2013-09-04 00:38:00,
2013-09-03 17:40:00,72.5,61.3,29.98,WNW,286,2.0,4.0,68,0.00,,---,0.16,VWS V14.01,2013-09-04 00:40:00,
2013-09-03 17:43:00,72.7,61.5,29.98,WNW,289,6.0,6.0,68,0.00,,---,0.16,VWS V14.01,2013-09-04 00:43:00,
2013-09-03 17:45:00,72.5,60.5,29.98,WNW,295,1.0,6.0,66,0.00,,---,0.16,VWS V14.01,2013-09-04 00:45:00,
2013-09-03 17:48:00,72.4,60.8,29.98,NW,309,1.0,3.0,67,0.00,,---,0.16,VWS V14.01,2013-09-04 00:48:00,
2013-09-03 17:50:00,72.6,61.4,29.98,WNW,299,2.0,4.0,68,0.00,,---,0.16,VWS V14.01,2013-09-04 00:50:00,
2013-09-03 17:53:00,72.8,61.2,29.98,West,276,0.0,3.0,67,0.00,,---,0.16,VWS V14.01,2013-09-04 00:53:00,
2013-09-03 17:55:00,73.0,61.0,29.98,NW,316,2.0,3.0,66,0.00,,---,0.16,VWS V14.01,2013-09-04 00:55:00,
2013-09-03 17:58:00,73.1,61.1,29.98,NW,326,1.0,2.0,66,0.00,,---,0.16,VWS V14.01,2013-09-04 00:58:00,
2013-09-03 18:00:00,73.5,61.0,29.98,NW,308,0.0,2.0,65,0.00,,---,0.16,VWS V14.01,2013-09-04 01:00:00,
2013-09-03 18:03:00,73.8,60.4,29.98,WNW,301,1.0,2.0,63,0.00,,---,0.16,VWS V14.01,2013-09-04 01:03:00,
2013-09-03 18:05:00,73.9,60.5,29.98,NW,325,3.0,3.0,63,0.00,,---,0.16,VWS V14.01,2013-09-04 01:05:00,
2013-09-03 18:08:00,73.8,60.4,29.98,WSW,252,0.0,3.0,63,0.00,,---,0.16,VWS V14.01,2013-09-04 01:08:00,
2013-09-03 18:10:00,73.6,59.3,29.98,West,274,2.0,3.0,61,0.00,,---,0.16,VWS V14.01,2013-09-04 01:10:00,
2013-09-03 18:13:00,73.4,60.0,29.98,WNW,282,1.0,3.0,63,0.00,,---,0.16,VWS V14.01,2013-09-04 01:13:00,
2013-09-03 18:15:00,73.6,58.9,29.98,NNW,335,1.0,3.0,60,0.00,,---,0.16,VWS V14.01,2013-09-04 01:15:00,
2013-09-03 18:18:00,73.7,59.0,29.98,WNW,288,1.0,2.0,60,0.00,,---,0.16,VWS V14.01,2013-09-04 01:18:00,
2013-09-03 18:20:00,73.8,58.6,29.97,NW,312,1.0,3.0,59,0.00,,---,0.16,VWS V14.01,2013-09-04 01:20:00,
2013-09-03 18:23:00,73.8,58.6,29.97,NW,326,1.0,2.0,59,0.00,,---,0.16,VWS V14.01,2013-09-04 01:23:00,
2013-09-03 18:25:00,73.7,57.5,29.98,WNW,299,2.0,3.0,57,0.00,,---,0.16,VWS V14.01,2013-09-04 01:25:00,
2013-09-03 18:28:00,73.6,58.4,29.98,WNW,295,1.0,2.0,59,0.00,,---,0.16,VWS V14.01,2013-09-04 01:28:00,
2013-09-03 18:30:00,73.6,58.4,29.97,WNW,293,1.0,3.0,59,0.00,,---,0.16,VWS V14.01,2013-09-04 01:30:00,
2013-09-03 18:33:00,73.5,58.3,29.97,NW,324,0.0,2.0,59,0.00,,---,0.16,VWS V14.01,2013-09-04 01:33:00,
2013-09-03 18:35:00,73.9,59.6,29.97,NW,324,0.0,2.0,61,0.00,,---,0.16,VWS V14.01,2013-09-04 01:35:00,
2013-09-03 18:38:00,74.3,59.5,29.97,WNW,300,1.0,1.0,60,0.00,,---,0.16,VWS V14.01,2013-09-04 01:38:00,
2013-09-03 18:40:00,74.3,59.1,29.97,NW,316,1.0,2.0,59,0.00,,---,0.16,VWS V14.01,2013-09-04 01:40:00,
2013-09-03 18:43:00,74.1,58.9,29.97,NW,322,2.0,4.0,59,0.00,,---,0.16,VWS V14.01,2013-09-04 01:43:00,
2013-09-03 18:45:00,73.7,59.9,29.97,NNW,332,1.0,5.0,62,0.00,,---,0.16,VWS V14.01,2013-09-04 01:45:00,
2013-09-03 18:48:00,73.5,59.7,29.98,NW,311,4.0,5.0,62,0.00,,---,0.16,VWS V14.01,2013-09-04 01:48:00,
2013-09-03 18:50:00,72.9,59.6,29.98,West,279,3.0,5.0,63,0.00,,---,0.16,VWS V14.01,2013-09-04 01:50:00,
2013-09-03 18:53:00,72.6,59.3,29.98,West,268,3.0,5.0,63,0.00,,---,0.16,VWS V14.01,2013-09-04 01:53:00,
2013-09-03 18:55:00,72.3,59.0,29.98,WNW,293,3.0,5.0,63,0.00,,---,0.16,VWS V14.01,2013-09-04 01:55:00,
2013-09-03 18:58:00,72.0,59.2,29.98,NW,305,2.0,4.0,64,0.00,,---,0.16,VWS V14.01,2013-09-04 01:58:00,
2013-09-03 19:00:00,71.6,58.8,29.98,NW,304,4.0,5.0,64,0.00,,---,0.16,VWS V14.01,2013-09-04 02:00:00,
2013-09-03 19:03:00,71.2,58.4,29.98,NW,311,2.0,4.0,64,0.00,,---,0.16,VWS V14.01,2013-09-04 02:03:00,
2013-09-03 19:05:00,70.8,58.5,29.98,NW,307,1.0,4.0,65,0.00,,---,0.16,VWS V14.01,2013-09-04 02:05:00,
2013-09-03 19:08:00,70.7,57.9,29.98,NW,309,0.0,4.0,64,0.00,,---,0.16,VWS V14.01,2013-09-04 02:08:00,
2013-09-03 19:10:00,70.8,58.9,29.98,NNW,330,1.0,4.0,66,0.00,,---,0.16,VWS V14.01,2013-09-04 02:10:00,
2013-09-03 19:13:00,70.9,58.6,29.98,NW,306,2.0,2.0,65,0.00,,---,0.16,VWS V14.01,2013-09-04 02:13:00,
2013-09-03 19:15:00,70.9,58.6,29.98,NNW,333,0.0,2.0,65,0.00,,---,0.16,VWS V14.01,2013-09-04 02:15:00,
2013-09-03 19:18:00,71.1,58.8,29.98,NNW,338,0.0,1.0,65,0.00,,---,0.16,VWS V14.01,2013-09-04 02:18:00,
2013-09-03 19:20:00,71.2,58.8,29.98,NW,316,0.0,1.0,65,0.00,,---,0.16,VWS V14.01,2013-09-04 02:20:00,
2013-09-03 19:23:00,71.1,58.3,29.98,NNW,330,2.0,3.0,64,0.00,,---,0.16,VWS V14.01,2013-09-04 02:23:00,
2013-09-03 19:25:00,70.5,58.2,29.98,NW,323,0.0,3.0,65,0.00,,---,0.16,VWS V14.01,2013-09-04 02:25:00,
2013-09-03 19:28:00,70.2,58.3,29.98,NW,323,0.0,0.0,66,0.00,,---,0.16,VWS V14.01,2013-09-04 02:28:00,
2013-09-03 19:30:00,69.8,58.4,29.98,NW,311,0.0,2.0,67,0.00,,---,0.16,VWS V14.01,2013-09-04 02:30:00,
2013-09-03 19:33:00,69.6,58.2,29.98,NW,311,0.0,1.0,67,0.00,,---,0.16,VWS V14.01,2013-09-04 02:33:00,
2013-09-03 19:35:00,69.2,58.2,29.98,NW,312,0.0,1.0,68,0.00,,---,0.16,VWS V14.01,2013-09-04 02:35:00,
2013-09-03 19:38:00,69.0,58.4,29.98,NW,312,0.0,0.0,69,0.00,,---,0.16,VWS V14.01,2013-09-04 02:38:00,
2013-09-03 19:40:00,68.6,58.4,29.98,NW,313,2.0,2.0,70,0.00,,---,0.16,VWS V14.01,2013-09-04 02:40:00,
2013-09-03 19:43:00,68.4,58.6,29.98,WNW,286,0.0,2.0,71,0.00,,---,0.16,VWS V14.01,2013-09-04 02:43:00,
2013-09-03 19:45:00,68.0,59.0,29.98,NW,308,2.0,3.0,73,0.00,,---,0.16,VWS V14.01,2013-09-04 02:45:00,
2013-09-03 19:48:00,67.7,58.7,29.98,NW,313,0.0,3.0,73,0.00,,---,0.16,VWS V14.01,2013-09-04 02:48:00,
2013-09-03 19:50:00,67.4,59.2,29.99,NW,319,0.0,3.0,75,0.00,,---,0.16,VWS V14.01,2013-09-04 02:50:00,
2013-09-03 19:53:00,67.2,59.0,29.98,North,349,3.0,3.0,75,0.00,,---,0.16,VWS V14.01,2013-09-04 02:53:00,
2013-09-03 19:55:00,66.8,59.4,29.99,NNW,328,1.0,4.0,77,0.00,,---,0.16,VWS V14.01,2013-09-04 02:55:00,
2013-09-03 19:58:00,66.6,59.2,29.98,North,356,1.0,3.0,77,0.00,,---,0.16,VWS V14.01,2013-09-04 02:58:00,
2013-09-03 20:00:00,66.4,59.3,29.98,East,91,0.0,3.0,78,0.00,,---,0.16,VWS V14.01,2013-09-04 03:00:00,
2013-09-03 20:03:00,66.2,59.5,29.99,NNE,12,0.0,2.0,79,0.00,,---,0.16,VWS V14.01,2013-09-04 03:03:00,
2013-09-03 20:05:00,66.0,59.3,29.99,NW,320,1.0,2.0,79,0.00,,---,0.16,VWS V14.01,2013-09-04 03:05:00,
2013-09-03 20:08:00,65.9,59.6,29.99,NW,316,1.0,1.0,80,0.00,,---,0.16,VWS V14.01,2013-09-04 03:08:00,
2013-09-03 20:10:00,65.6,59.6,29.99,WNW,297,2.0,3.0,81,0.00,,---,0.16,VWS V14.01,2013-09-04 03:10:00,
2013-09-03 20:13:00,65.4,59.8,29.99,WNW,297,0.0,2.0,82,0.00,,---,0.16,VWS V14.01,2013-09-04 03:13:00,
2013-09-03 20:15:00,65.2,59.6,29.99,NNW,330,0.0,2.0,82,0.00,,---,0.16,VWS V14.01,2013-09-04 03:15:00,
2013-09-03 20:18:00,65.1,59.5,29.99,NW,320,1.0,2.0,82,0.00,,---,0.16,VWS V14.01,2013-09-04 03:18:00,
2013-09-03 20:20:00,64.9,59.6,29.99,NE,50,0.0,2.0,83,0.00,,---,0.16,VWS V14.01,2013-09-04 03:20:00,
2013-09-03 20:23:00,64.8,59.5,29.99,NNE,33,1.0,3.0,83,0.00,,---,0.16,VWS V14.01,2013-09-04 03:23:00,
2013-09-03 20:25:00,64.6,59.3,29.99,NNW,334,0.0,3.0,83,0.00,,---,0.16,VWS V14.01,2013-09-04 03:25:00,
2013-09-03 20:28:00,64.5,59.2,29.99,NNW,338,3.0,3.0,83,0.00,,---,0.16,VWS V14.01,2013-09-04 03:28:00,
2013-09-03 20:30:00,64.3,59.0,29.99,NW,309,1.0,6.0,83,0.00,,---,0.16,VWS V14.01,2013-09-04 03:30:00,
2013-09-03 20:33:00,64.2,58.9,29.99,NE,41,2.0,4.0,83,0.00,,---,0.16,VWS V14.01,2013-09-04 03:33:00,
2013-09-03 20:35:00,64.1,58.8,29.99,NNW,338,4.0,5.0,83,0.00,,---,0.16,VWS V14.01,2013-09-04 03:35:00,
2013-09-03 20:38:00,64.1,58.8,29.99,NW,325,4.0,6.0,83,0.00,,---,0.16,VWS V14.01,2013-09-04 03:38:00,
2013-09-03 20:40:00,64.0,58.7,29.99,NNW,333,2.0,6.0,83,0.00,,---,0.16,VWS V14.01,2013-09-04 03:40:00,
2013-09-03 20:43:00,64.0,59.1,29.99,NE,39,3.0,5.0,84,0.00,,---,0.16,VWS V14.01,2013-09-04 03:43:00,
2013-09-03 20:45:00,63.9,59.0,29.99,NW,314,1.0,5.0,84,0.00,,---,0.16,VWS V14.01,2013-09-04 03:45:00,
2013-09-03 20:48:00,63.9,59.0,30.00,North,8,3.0,3.0,84,0.00,,---,0.16,VWS V14.01,2013-09-04 03:48:00,
2013-09-03 20:50:00,63.8,58.9,30.00,NNE,21,2.0,3.0,84,0.00,,---,0.16,VWS V14.01,2013-09-04 03:50:00,
2013-09-03 20:53:00,63.8,58.9,30.00,North,7,2.0,4.0,84,0.00,,---,0.16,VWS V14.01,2013-09-04 03:53:00,
2013-09-03 20:55:00,63.7,58.8,30.00,North,2,0.0,4.0,84,0.00,,---,0.16,VWS V14.01,2013-09-04 03:55:00,
2013-09-03 20:58:00,63.7,58.8,30.00,NE,48,2.0,2.0,84,0.00,,---,0.16,VWS V14.01,2013-09-04 03:58:00,
2013-09-03 21:00:00,63.5,58.6,30.00,ENE,72,2.0,4.0,84,0.00,,---,0.16,VWS V14.01,2013-09-04 04:00:00,
2013-09-03 21:01:00,63.6,58.7,30.00,NNE,18,0.0,3.0,84,0.00,,---,0.16,VWS V14.01,2013-09-04 04:01:00,
2013-09-03 21:05:00,63.5,58.6,30.00,NE,39,2.0,3.0,84,0.00,,---,0.16,VWS V14.01,2013-09-04 04:05:00,
2013-09-03 21:06:00,63.5,58.6,30.00,NE,39,1.0,3.0,84,0.00,,---,0.16,VWS V14.01,2013-09-04 04:06:00,
2013-09-03 21:10:00,63.3,58.4,30.00,ENE,63,0.0,2.0,84,0.00,,---,0.16,VWS V14.01,2013-09-04 04:10:00,
2013-09-03 21:11:00,63.4,58.5,30.00,NE,56,0.0,2.0,84,0.00,,---,0.16,VWS V14.01,2013-09-04 04:11:00,
2013-09-03 21:15:00,63.2,58.3,30.00,NNW,344,2.0,3.0,84,0.00,,---,0.16,VWS V14.01,2013-09-04 04:15:00,
2013-09-03 21:16:00,63.2,58.3,30.00,East,88,1.0,3.0,84,0.00,,---,0.16,VWS V14.01,2013-09-04 04:16:00,
2013-09-03 21:20:00,63.1,58.5,30.00,NE,49,2.0,3.0,85,0.00,,---,0.16,VWS V14.01,2013-09-04 04:20:00,
2013-09-03 21:21:00,63.1,58.5,30.00,NNE,22,2.0,3.0,85,0.00,,---,0.16,VWS V14.01,2013-09-04 04:21:00,
2013-09-03 21:25:00,63.1,58.5,30.00,ENE,59,0.0,5.0,85,0.00,,---,0.16,VWS V14.01,2013-09-04 04:25:00,
2013-09-03 21:26:00,63.0,58.4,30.00,ENE,60,0.0,5.0,85,0.00,,---,0.16,VWS V14.01,2013-09-04 04:26:00,
2013-09-03 21:30:00,63.0,58.4,30.00,ENE,62,0.0,1.0,85,0.00,,---,0.16,VWS V14.01,2013-09-04 04:30:00,
2013-09-03 21:31:00,63.0,58.4,30.00,ENE,60,1.0,1.0,85,0.00,,---,0.16,VWS V14.01,2013-09-04 04:31:00,
2013-09-03 21:35:00,63.2,58.6,30.00,NE,46,0.0,5.0,85,0.00,,---,0.16,VWS V14.01,2013-09-04 04:35:00,
2013-09-03 21:36:00,63.1,58.5,30.00,NE,46,0.0,5.0,85,0.00,,---,0.16,VWS V14.01,2013-09-04 04:36:00,
2013-09-03 21:40:00,63.3,58.7,30.00,NNE,13,0.0,1.0,85,0.00,,---,0.16,VWS V14.01,2013-09-04 04:40:00,
2013-09-03 21:41:00,63.3,58.4,30.00,NE,39,0.0,1.0,84,0.00,,---,0.16,VWS V14.01,2013-09-04 04:41:00,
2013-09-03 21:45:00,63.0,58.4,30.00,NW,321,0.0,2.0,85,0.00,,---,0.16,VWS V14.01,2013-09-04 04:45:00,
2013-09-03 21:46:00,63.1,58.5,30.00,NW,320,0.0,2.0,85,0.00,,---,0.16,VWS V14.01,2013-09-04 04:46:00,
2013-09-03 21:50:00,62.8,58.2,30.00,NNW,332,0.0,2.0,85,0.00,,---,0.16,VWS V14.01,2013-09-04 04:50:00,
2013-09-03 21:51:00,62.8,58.2,30.00,NNW,332,0.0,2.0,85,0.00,,---,0.16,VWS V14.01,2013-09-04 04:51:00,
2013-09-03 21:55:00,62.6,58.0,30.01,NNW,332,0.0,1.0,85,0.00,,---,0.16,VWS V14.01,2013-09-04 04:55:00,
2013-09-03 21:56:00,62.6,58.0,30.01,NNW,332,0.0,1.0,85,0.00,,---,0.16,VWS V14.01,2013-09-04 04:56:00,
2013-09-03 22:00:00,62.4,57.8,30.01,North,356,0.0,1.0,85,0.00,,---,0.16,VWS V14.01,2013-09-04 05:00:00,
2013-09-03 22:01:00,62.4,57.8,30.01,North,356,0.0,1.0,85,0.00,,---,0.16,VWS V14.01,2013-09-04 05:01:00,
2013-09-03 22:05:00,62.3,58.1,30.01,NNW,348,0.0,2.0,86,0.00,,---,0.16,VWS V14.01,2013-09-04 05:05:00,
2013-09-03 22:06:00,62.3,58.1,30.01,North,349,0.0,2.0,86,0.00,,---,0.16,VWS V14.01,2013-09-04 05:06:00,
2013-09-03 22:10:00,62.3,58.1,30.01,NW,323,1.0,3.0,86,0.00,,---,0.16,VWS V14.01,2013-09-04 05:10:00,
2013-09-03 22:11:00,62.3,58.1,30.01,NW,316,1.0,3.0,86,0.00,,---,0.16,VWS V14.01,2013-09-04 05:11:00,
2013-09-03 22:15:00,62.3,58.1,30.01,North,349,1.0,2.0,86,0.00,,---,0.16,VWS V14.01,2013-09-04 05:15:00,
2013-09-03 22:16:00,62.3,58.1,30.01,NNW,345,0.0,2.0,86,0.00,,---,0.16,VWS V14.01,2013-09-04 05:16:00,
2013-09-03 22:20:00,62.3,58.1,30.02,North,358,0.0,2.0,86,0.00,,---,0.16,VWS V14.01,2013-09-04 05:20:00,
2013-09-03 22:21:00,62.3,58.1,30.02,North,356,1.0,2.0,86,0.00,,---,0.16,VWS V14.01,2013-09-04 05:21:00,
2013-09-03 22:25:00,62.3,58.1,30.01,NW,321,1.0,2.0,86,0.00,,---,0.16,VWS V14.01,2013-09-04 05:25:00,
2013-09-03 22:26:00,62.3,58.1,30.01,North,3,0.0,2.0,86,0.00,,---,0.16,VWS V14.01,2013-09-04 05:26:00,
2013-09-03 22:30:00,62.3,58.1,30.01,North,356,0.0,2.0,86,0.00,,---,0.16,VWS V14.01,2013-09-04 05:30:00,
2013-09-03 22:31:00,62.3,58.1,30.01,North,354,0.0,2.0,86,0.00,,---,0.16,VWS V14.01,2013-09-04 05:31:00,
2013-09-03 22:35:00,62.2,58.0,30.01,NW,324,1.0,3.0,86,0.00,,---,0.16,VWS V14.01,2013-09-04 05:35:00,
2013-09-03 22:36:00,62.2,58.0,30.01,NNW,345,0.0,3.0,86,0.00,,---,0.16,VWS V14.01,2013-09-04 05:36:00,
2013-09-03 22:40:00,62.2,58.0,30.02,NNW,328,1.0,3.0,86,0.00,,---,0.16,VWS V14.01,2013-09-04 05:40:00,
2013-09-03 22:41:00,62.2,58.0,30.02,NW,306,0.0,3.0,86,0.00,,---,0.16,VWS V14.01,2013-09-04 05:41:00,
2013-09-03 22:45:00,62.2,58.0,30.02,NNW,328,0.0,3.0,86,0.00,,---,0.16,VWS V14.01,2013-09-04 05:45:00,
2013-09-03 22:46:00,62.2,58.0,30.02,NNW,327,1.0,3.0,86,0.00,,---,0.16,VWS V14.01,2013-09-04 05:46:00,
2013-09-03 22:50:00,62.1,57.5,30.02,NNE,18,0.0,1.0,85,0.00,,---,0.16,VWS V14.01,2013-09-04 05:50:00,
2013-09-03 22:51:00,62.1,57.9,30.02,NNE,18,0.0,1.0,86,0.00,,---,0.16,VWS V14.01,2013-09-04 05:51:00,
2013-09-03 22:55:00,62.0,57.8,30.02,NNE,18,0.0,1.0,86,0.00,,---,0.16,VWS V14.01,2013-09-04 05:55:00,
2013-09-03 22:56:00,62.0,57.8,30.02,NNE,18,0.0,1.0,86,0.00,,---,0.16,VWS V14.01,2013-09-04 05:56:00,
2013-09-03 23:00:00,61.9,57.7,30.02,NNE,18,0.0,0.0,86,0.00,,---,0.16,VWS V14.01,2013-09-04 06:00:00,
2013-09-03 23:01:00,61.9,57.7,30.02,NNE,18,0.0,0.0,86,0.00,,---,0.16,VWS V14.01,2013-09-04 06:01:00,
2013-09-03 23:05:00,61.8,57.6,30.02,NNE,18,0.0,1.0,86,0.00,,---,0.16,VWS V14.01,2013-09-04 06:05:00,
2013-09-03 23:06:00,61.8,57.6,30.02,NNE,18,0.0,1.0,86,0.00,,---,0.16,VWS V14.01,2013-09-04 06:06:00,
2013-09-03 23:10:00,61.8,57.6,30.02,NNE,18,0.0,1.0,86,0.00,,---,0.16,VWS V14.01,2013-09-04 06:10:00,
2013-09-03 23:11:00,61.8,57.6,30.02,NNE,18,0.0,1.0,86,0.00,,---,0.16,VWS V14.01,2013-09-04 06:11:00,
2013-09-03 23:15:00,61.8,57.6,30.02,North,9,0.0,1.0,86,0.00,,---,0.16,VWS V14.01,2013-09-04 06:15:00,
2013-09-03 23:16:00,61.8,57.6,30.02,North,9,0.0,1.0,86,0.00,,---,0.16,VWS V14.01,2013-09-04 06:16:00,
2013-09-03 23:20:00,61.8,57.6,30.02,NNW,342,0.0,1.0,86,0.00,,---,0.16,VWS V14.01,2013-09-04 06:20:00,
2013-09-03 23:21:00,61.8,57.6,30.02,NW,323,0.0,1.0,86,0.00,,---,0.16,VWS V14.01,2013-09-04 06:21:00,
2013-09-03 23:25:00,61.8,57.6,30.02,NW,319,1.0,2.0,86,0.00,,---,0.16,VWS V14.01,2013-09-04 06:25:00,
2013-09-03 23:26:00,61.7,57.5,30.02,NNW,347,2.0,2.0,86,0.00,,---,0.16,VWS V14.01,2013-09-04 06:26:00,
2013-09-03 23:30:00,61.7,57.5,30.02,NNW,342,1.0,3.0,86,0.00,,---,0.16,VWS V14.01,2013-09-04 06:30:00,
2013-09-03 23:31:00,61.7,57.5,30.02,NW,326,1.0,3.0,86,0.00,,---,0.16,VWS V14.01,2013-09-04 06:31:00,
2013-09-03 23:35:00,61.6,57.4,30.02,NNW,341,0.0,1.0,86,0.00,,---,0.16,VWS V14.01,2013-09-04 06:35:00,
2013-09-03 23:36:00,61.6,57.4,30.02,NNW,341,0.0,1.0,86,0.00,,---,0.16,VWS V14.01,2013-09-04 06:36:00,
2013-09-03 23:40:00,61.5,57.3,30.02,NE,39,0.0,2.0,86,0.00,,---,0.16,VWS V14.01,2013-09-04 06:40:00,
2013-09-03 23:41:00,61.5,57.3,30.02,NE,40,1.0,2.0,86,0.00,,---,0.16,VWS V14.01,2013-09-04 06:41:00,
2013-09-03 23:45:00,61.4,57.2,30.02,NW,321,1.0,3.0,86,0.00,,---,0.16,VWS V14.01,2013-09-04 06:45:00,
2013-09-03 23:46:00,61.4,57.2,30.02,NNE,24,0.0,2.0,86,0.00,,---,0.16,VWS V14.01,2013-09-04 06:46:00,
2013-09-03 23:50:00,61.3,57.1,30.02,NNE,19,0.0,1.0,86,0.00,,---,0.16,VWS V14.01,2013-09-04 06:50:00,
2013-09-03 23:51:00,61.3,57.1,30.02,NNE,19,0.0,1.0,86,0.00,,---,0.16,VWS V14.01,2013-09-04 06:51:00,
2013-09-03 23:55:00,61.2,57.0,30.02,North,7,1.0,2.0,86,0.00,,---,0.16,VWS V14.01,2013-09-04 06:55:00,
2013-09-03 23:56:00,61.2,57.0,30.02,North,351,0.0,1.0,86,0.00,,---,0.16,VWS V14.01,2013-09-04 06:56:00,